2019-036K (44348 NORAD) Tracking and Keplerian Element Data

This shows tracking and keplerian element data for the satellite.

Feedback or suggestion? Click here.




ElementValue
Catalog44348
Name2019-036K
Epoch Orbit384
Epoch Day201.93492276
Epoch Year2019
RAAN34.2807
Inclination28.522
Eccentricity0.0390569
Argument of Perigee16.5065
Mean Anonmoly344.7852
Mean Motion14.96553376
Decay Rate5.029E-05
L11 44348U 19036K 19201.93492276 .00005029 00000-0 76043-4 0 9997
L22 44348 28.5220 34.2807 0390569 16.5065 344.7852 14.96553376 3840

Live tracking and technical data element details for 2019-036K (NORAD 44348). 2019-036K can be tracked NOW for your location showing map with azimuth and elevation plus other details from your city location.

Track the satellite on the map from your city or location and see movement details for azimuth, elevation, latitude, longitude, range, height, and movement on the map or in text.







IsCatalogInMostPopularTable: catalog: 44348, numindb: 4
Update: records affected: 1



GetName: 44348 2019-036K

Hit Count: updated at: Sun, 21 Jul 2019 20:57:47 GMT